User: anonymous   Login
Location: Syracuse
(43.0480°N, 76.1480°W)
Time: 06:45:04
(UTC-04:00)
Language:

Cosmos 1140 Rocket - Orbit

View from above orbital plane
View from above orbital plane
View from above satellite
View from above satellite

Ground track
Ground track

The orbit data is extracted from the following two-line orbital elements,

1 11574U 79089B   17142.85500847 +.00000032 +00000-0 +18282-4 0  9993
2 11574 074.0698 265.7992 0015798 180.7479 179.3656 14.40628032973309
Epoch (UTC): 22 May 2017 20:31:12
Eccentricity: 0.0015798
inclination: 74.0698°
perigee height: 745 km
apogee height: 767 km
right ascension of ascending node: 265.7992°
argument of perigee: 180.7479°
revolutions per day: 14.40628032
mean anomaly at epoch: 179.3656°
orbit number at epoch: 97330

The dashed part of the orbit path shows where the satellite is in the earth's shadow,  

DLR